Flag for Germany Past Weather in Stolberg (Rheinland), North Rhine-Westphalia, Germany — Yesterday and Last 2 Weeks

Now
73 °F

Passing clouds.


Feels Like: 74 °F
Forecast: 66 / 90 °F
Wind: 6 mph from Northwest

Location: Noervenich

Current Time: Aug 27, 2016 at 1:38:11 AM

Latest Report: Aug 27, 2016 at 12:20 AM


Visibility: N/A

Pressure: 30.09 "Hg

Humidity: 78%

Dew Point: 66 °F

Location of Stolberg (Rheinland)Location

Past Weather in Stolberg (Rheinland) — Graph

°F

Stolberg (Rheinland) Temperature Yesterday

Maximum temperature yesterday: 91 °F (at 3:20 PM)
Minimum temperature yesterday: 66 °F (at 7:20 AM)
Average temperature yesterday: 80 °F

High & Low Weather Summary for the Past Weeks

 TemperatureHumidityPressure
High91 °F (Aug 25, 3:20 PM)100% (Aug 14, 5:20 AM)30.33 "Hg (Aug 14, 5:20 AM)
Low50 °F (Aug 16, 6:20 AM)32% (Aug 25, 5:20 PM)29.77 "Hg (Aug 18, 4:20 PM)
Average68 °F68%30.08 "Hg
* Reported Aug 12 12:20 AM — Aug 27 12:20 AM, Stolberg (Rheinland), Weather by CustomWeather, © 2016

Note: Actual official high and low records may vary slightly from our data, if they occured in-between our weather recording intervals... More about our weather records

Advertising

Stolberg (Rheinland) Weather History for the Previous 24 Hours

Scroll right to see more
 ConditionsComfort  
Time TempWeatherWind HumidityBarometerVisibility
12:20 AM
Sat, Aug 27
73 °FPassing clouds.6 mph78%30.09 "HgN/A
11:20 PM
Fri, Aug 26
75 °FPassing clouds.6 mph78%30.07 "HgN/A
10:20 PM79 °FPassing clouds.6 mph65%30.07 "HgN/A
9:20 PM81 °FScattered clouds.6 mph62%30.04 "HgN/A
8:20 PM82 °FScattered clouds.6 mph62%30.04 "HgN/A
7:20 PM86 °FPartly sunny.7 mph55%30.04 "HgN/A
6:20 PM90 °FPartly sunny.9 mph49%30.01 "HgN/A
5:20 PM90 °FPartly sunny.8 mph46%30.04 "HgN/A
4:20 PM91 °FPartly sunny.8 mph41%30.01 "HgN/A
3:20 PM91 °FPartly sunny.9 mph44%30.01 "HgN/A
2:20 PM90 °FPartly sunny.6 mph43%30.01 "HgN/A
1:20 PM90 °FPassing clouds.2 mph43%30.01 "HgN/A
1:03 PM90 °FPassing clouds.2 mph43%30.01 "HgN/A
12:20 PM90 °FPassing clouds.3 mph43%30.01 "HgN/A
11:20 AM86 °FPassing clouds.3 mph46%30.01 "HgN/A
10:20 AM82 °FPassing clouds.2 mph51%30.01 "HgN/A
9:20 AM77 °FPassing clouds.3 mph61%30.01 "HgN/A
8:20 AM70 °FPassing clouds.3 mph69%29.98 "HgN/A
7:20 AM66 °FPassing clouds.3 mph78%29.98 "HgN/A
6:20 AM68 °FPassing clouds.5 mph73%29.98 "HgN/A
5:20 AM68 °FMild.3 mph73%29.98 "Hg6 mi
4:20 AM70 °FMild.3 mph69%29.98 "Hg4 mi
3:20 AM70 °FMild.5 mph69%29.98 "Hg4 mi
2:20 AM72 °FMild.3 mph65%29.95 "Hg4 mi
1:20 AM73 °FMild.6 mph61%29.98 "Hg4 mi
Weather by CustomWeather, © 2016

See weather overviewHow to use our weather pages